SIRION PATHFINDER-2

Last updated on Thu Oct 23 2025 00:03:57 GMT+0000 (Coordinated Universal Time)

1 43759U 18099B 25295.45289072 .00006710 00000+0 39978-3 0 9997 2 43759 97.4614 345.1510 0010464 49.3149 310.8989 15.11466893376676
UTC large
Height (km)
Speed (km/s)
/
Latitude / Longitude
Inclination (degrees)
Orbital Period (minutes)
Azimuth
Elevation
Range (km)
Doppler Factor

Next 0 passes for location: London (51.5072 / 0.1276)

Sorry there are no passes over London.